Cedar Rapids, IA

3:53 AM CDT on July 27, 2017 (GMT -0500)
The Eastern Iowa Airport

Weather History for KCID - June, 2013

Change the Weather History Date:

Thursday, June 27, 2013

  Actual Average Record
Temperature  
Mean Temperature 76 °F 72 °F  
Max Temperature 86 °F 83 °F 103 °F (1934)
Min Temperature 66 °F 62 °F 42 °F (1926)
Degree Days  
Heating Degree Days 0 0  
Month to date heating degree days 28 29  
Since 1 June heating degree days 28 29  
Since 1 July heating degree days 6997 6866  
Cooling Degree Days 11 8  
Month to date cooling degree days 155 143  
Year to date cooling degree days 229 192  
Since 1 June cooling degree days 155 143  
Growing Degree Days 25 (Base 50)    
Moisture  
Dew Point 66 °F    
Average Humidity 74    
Maximum Humidity 93    
Minimum Humidity 55    
Precipitation  
Precipitation 0.00 in 0.18 in 1.95 in (1953)
Month to date precipitation 5.73 4.40  
Year to date precipitation 25.92 15.84  
Sea Level Pressure  
Sea Level Pressure 29.83 in    
Wind  
Wind Speed 9 mph (WNW)    
Max Wind Speed 24 mph    
Max Gust Speed 29 mph    
Visibility 10 miles    
Events      
T = Trace of Precipitation, MM = Missing Value Source: NWS Daily Summary

Daily Weather History Graph

Daily Weather History Graph

Search for Another Location

Airport or City:

Trip Planner

Search our weather history database for the weather conditions in past years. The results will help you decide how hot, cold, wet, or windy it might be!

Date:

Astronomy

Jun. 27, 2013 Rise Set
Actual Time 5:33 AM CDT 8:46 PM CDT
Civil Twilight 4:59 AM CDT 9:20 PM CDT
Nautical Twilight 4:15 AM CDT 10:04 PM CDT
Astronomical Twilight 3:22 AM CDT 10:57 PM CDT
Moon 11:38 PM CDT 10:40 AM CDT
Length of Visible Light 16h 20m
Length of Day
15h 12m
Waning Gibbous, 76% of the Moon is Illuminated
Jun 27
Waning Gibbous
Jun 29
Last Quarter
Jul 8
New
Jul 15
First Quarter
Jul 22
Full

Hourly Weather History & Observations

Time (CDT) Temp. Heat Index Dew Point Humidity Pressure Visibility Wind Dir Wind Speed Gust Speed Precip Events Conditions
12:52 AM 73.0 °F - 68.0 °F 84% 29.80 in 10.0 mi NNW 3.5 mph - N/A   Clear
1:52 AM 71.1 °F - 66.9 °F 87% 29.81 in 10.0 mi Calm Calm - N/A   Clear
2:52 AM 69.1 °F - 66.0 °F 90% 29.81 in 10.0 mi NW 4.6 mph - N/A   Clear
3:52 AM 69.1 °F - 66.0 °F 90% 29.83 in 10.0 mi WNW 6.9 mph - N/A   Clear
4:52 AM 66.0 °F - 64.0 °F 93% 29.82 in 10.0 mi West 8.1 mph - N/A   Clear
5:52 AM 66.9 °F - 64.0 °F 90% 29.83 in 10.0 mi WNW 4.6 mph - N/A   Clear
6:52 AM 70.0 °F - 66.0 °F 87% 29.84 in 10.0 mi Calm Calm - N/A   Clear
7:52 AM 73.0 °F - 66.0 °F 79% 29.86 in 10.0 mi West 3.5 mph - N/A   Clear
8:52 AM 77.0 °F - 68.0 °F 74% 29.86 in 10.0 mi WNW 4.6 mph - N/A   Clear
9:52 AM 80.1 °F 82.9 °F 69.1 °F 69% 29.84 in 10.0 mi West 6.9 mph - N/A   Clear
10:52 AM 82.0 °F 85.9 °F 70.0 °F 67% 29.84 in 10.0 mi WSW 8.1 mph - N/A   Clear
11:52 AM 84.0 °F 88.4 °F 70.0 °F 63% 29.84 in 10.0 mi West 12.7 mph 17.3 mph N/A   Clear
12:52 PM 82.9 °F 84.6 °F 64.9 °F 54% 29.84 in 10.0 mi West 21.9 mph 26.5 mph N/A   Clear
1:52 PM 81.0 °F 83.8 °F 68.0 °F 65% 29.85 in 10.0 mi West 16.1 mph 26.5 mph N/A   Clear
2:52 PM 79.0 °F - 66.0 °F 64% 29.85 in 10.0 mi WNW 15.0 mph - N/A   Clear
3:52 PM 82.0 °F 85.5 °F 69.1 °F 65% 29.83 in 10.0 mi WNW 16.1 mph - N/A   Clear
4:52 PM 84.0 °F 86.5 °F 66.9 °F 56% 29.82 in 10.0 mi NW 18.4 mph 26.5 mph N/A   Clear
5:52 PM 82.9 °F 85.4 °F 66.9 °F 58% 29.81 in 10.0 mi WNW 15.0 mph 21.9 mph N/A   Clear
6:52 PM 82.0 °F 84.9 °F 68.0 °F 62% 29.79 in 10.0 mi WNW 12.7 mph - N/A   Clear
7:52 PM 80.1 °F 82.1 °F 66.0 °F 62% 29.79 in 10.0 mi NW 8.1 mph - N/A   Clear
8:52 PM 73.0 °F - 64.9 °F 76% 29.79 in 10.0 mi NW 6.9 mph - N/A   Clear
9:52 PM 71.1 °F - 64.0 °F 78% 29.81 in 10.0 mi WNW 5.8 mph - N/A   Clear
10:52 PM 70.0 °F - 63.0 °F 78% 29.82 in 10.0 mi WNW 4.6 mph - N/A   Clear
11:52 PM 69.1 °F - 62.1 °F 78% 29.83 in 10.0 mi WNW 8.1 mph - N/A   Clear